EW4486 Weather Reports


time (UTC)temp
C
wind
direction
speed
KPH
gust
KPH
rain 1hr
cm
rain 24hr
cm
rain mn
cm
humidity
%
barometer
mb
20260906093003 18 175 0.0 1.6 0.00 0.00 0.00 89 1010.7
20260906091505 19 175 0.0 3.2 0.00 0.00 0.00 90 1010.8
20260906090003 19 175 0.0 8.0 0.00 0.00 0.00 90 1010.5
20260906084502 19 49 4.8 9.7 0.00 0.00 0.00 91 1010.2
20260906083002 19 63 1.6 9.7 0.00 0.00 0.00 91 1010.4
20260906081504 19 67 0.0 8.0 0.00 0.00 0.00 90 1010.4
20260906080000 19 109 3.2 11.3 0.00 0.00 0.00 89 1010.6
20260906074614 19 19 6.4 12.9 0.00 0.00 0.00 90 1010.4
20260906073101 19 63 4.8 11.3 0.00 0.00 0.00 90 1010.3
20260906071603 19 65 1.6 9.7 0.00 0.00 0.00 91 1010.7
20260906070056 19 93 0.0 3.2 0.00 0.00 0.00 90 1010.8
20260906064556 19 94 0.0 6.4 0.00 0.00 0.00 90 1010.9
20260906063055 19 66 0.0 8.0 0.00 0.00 0.00 90 1011.1
20260906061557 19 81 1.6 8.0 0.00 0.00 0.00 89 1011.2
20260906060052 19 43 1.6 8.0 0.00 0.00 0.00 89 1011.3
20260906054552 19 34 3.2 9.7 0.00 0.00 0.00 89 1011.4
20260906053051 19 76 3.2 9.7 0.00 0.00 0.00 88 1011.5
20260906051559 19 34 1.6 3.2 0.00 0.00 0.00 88 1011.7
20260906050053 19 61 0.0 3.2 0.00 0.00 0.00 87 1011.8
20260906044548 19 61 0.0 3.2 0.00 0.00 0.00 87 1011.8
20260906043047 19 61 0.0 8.0 0.00 0.00 0.00 87 1011.6
20260906041546 19 47 3.2 8.0 0.00 0.00 0.00 86 1011.8
20260906040047 20 71 3.2 9.7 0.00 0.00 0.00 86 1011.8
20260906034544 20 53 1.6 9.7 0.00 0.00 0.00 85 1011.8
20260906033047 20 57 6.4 11.3 0.00 0.00 0.00 84 1011.8
20260906031555 20 47 6.4 9.7 0.00 0.00 0.00 84 1011.8
20260906030043 20 36 8.0 14.5 0.00 0.00 0.00 84 1011.8
20260906024541 20 106 9.7 16.1 0.00 0.00 0.00 83 1011.7
20260906023040 20 53 8.0 16.1 0.00 0.00 0.00 82 1011.6
20260906021539 20 49 8.0 19.3 0.00 0.00 0.00 82 1011.6
20260906020039 20 35 9.7 17.7 0.00 0.00 0.00 81 1011.5
20260906014539 20 69 9.7 19.3 0.00 0.00 0.00 80 1011.5
20260906013038 20 60 4.8 17.7 0.00 0.00 0.00 80 1011.5
20260906011540 21 46 8.0 16.1 0.00 0.00 0.00 79 1011.3
20260906010036 21 60 8.0 16.1 0.00 0.00 0.00 77 1011.1
20260906004537 21 86 8.0 20.9 0.00 0.00 0.00 75 1010.9
20260906003034 21 75 12.9 25.7 0.00 0.00 0.00 74 1010.5
20260906001533 21 55 8.0 22.5 0.00 0.00 0.00 73 1010.5
20260906000034 21 119 8.0 17.7 0.00 0.00 0.00 71 1010.5
20260905234534 22 76 9.7 17.7 0.00 0.00 0.00 69 1010.4
20260905233035 22 44 4.8 17.7 0.00 0.00 0.00 67 1010.6
20260905231532 22 351 8.0 19.3 0.00 0.00 0.00 65 1010.4
20260905230036 22 69 8.0 19.3 0.00 0.00 0.00 63 1010.6
20260905224634 23 71 6.4 14.5 0.00 0.00 0.00 62 1010.8
20260905223030 23 9 8.0 17.7 0.00 0.00 0.00 59 1010.7
20260905221530 23 28 11.3 25.7 0.00 0.00 0.00 57 1010.6
20260905220035 24 67 8.0 20.9 0.00 0.00 0.00 55 1010.6
20260905214529 24 54 9.7 22.5 0.00 0.00 0.00 55 1010.5
20260905213028 24 98 9.7 24.1 0.00 0.00 0.00 58 1010.5
20260905211528 24 28 11.3 20.9 0.00 0.00 0.00 57 1010.6
20260905210027 24 307 8.0 22.5 0.00 0.00 0.00 56 1010.4
20260905204527 25 25 6.4 16.1 0.00 0.00 0.00 56 1010.6
20260905203026 24 69 6.4 16.1 0.00 0.00 0.00 56 1010.6
20260905201526 23 305 6.4 14.5 0.00 0.00 0.00 57 1010.7
20260905200026 23 315 6.4 17.7 0.00 0.00 0.00 57 1010.6
20260905194525 23 121 4.8 19.3 0.00 0.00 0.00 57 1010.2
20260905193027 23 113 8.0 22.5 0.00 0.00 0.00 58 1010.1
20260905191524 23 355 9.7 29.0 0.00 0.00 0.00 55 1010.0
20260905190024 23 36 9.7 25.7 0.00 0.00 0.00 55 1010.0
20260905184525 22 322 6.4 20.9 0.00 0.00 0.00 61 1010.5
20260905183019 21 303 6.4 17.7 0.00 0.00 0.00 68 1010.8
20260905181518 20 136 4.8 19.3 0.00 0.00 0.00 72 1010.9
20260905180017 20 11 9.7 17.7 0.00 0.00 0.00 75 1011.2
20260905174521 20 24 6.4 14.5 0.00 0.00 0.00 73 1012.1
20260905173023 20 79 12.9 38.6 0.00 0.00 0.00 71 1012.1
20260905171519 21 27 14.5 33.8 0.00 0.00 0.00 72 1012.5
20260905170010 22 233 9.7 25.7 0.00 0.00 0.00 70 1013.3
20260905164508 24 32 14.5 40.2 0.00 0.00 0.00 62 1013.4
20260905163007 25 9 9.7 19.3 0.00 0.00 0.00 65 1013.1
20260905161507 25 202 6.4 19.3 0.00 0.00 0.00 67 1012.8
20260905160010 26 355 9.7 24.1 0.00 0.00 0.00 65 1012.7
20260905154505 26 55 11.3 22.5 0.00 0.00 0.00 69 1012.9
20260905153001 25 90 6.4 16.1 0.00 0.00 0.00 71 1012.9
20260905151607 25 80 8.0 20.9 0.00 0.00 0.00 74 1012.7
20260905150058 25 59 6.4 20.9 0.00 0.00 0.00 72 1012.4
20260905144554 24 153 11.3 24.1 0.00 0.00 0.00 75 1012.6
20260905143051 24 280 8.0 37.0 0.00 0.00 0.00 75 1012.7
20260905141547 24 317 8.0 22.5 0.00 0.00 0.00 75 1012.6
20260905140043 23 80 8.0 20.9 0.00 0.00 0.00 77 1012.5
20260905134538 23 58 9.7 20.9 0.00 0.00 0.00 78 1012.5
20260905133034 23 109 8.0 19.3 0.00 0.00 0.00 78 1012.7
20260905131530 23 44 8.0 16.1 0.00 0.00 0.00 79 1013.0
20260905130024 23 265 6.4 14.5 0.00 0.00 0.00 78 1013.0
20260905124526 23 5 8.0 16.1 0.00 0.00 0.00 78 1013.1
20260905123018 22 44 8.0 19.3 0.00 0.00 0.00 78 1012.9
20260905121517 22 77 8.0 14.5 0.00 0.00 0.00 78 1012.8
20260905120017 22 42 8.0 19.3 0.00 0.00 0.00 78 1012.6
20260905114514 22 36 8.0 16.1 0.00 0.00 0.00 78 1012.5
20260905113008 22 52 9.7 16.1 0.00 0.00 0.00 78 1012.5
20260905111506 21 82 9.7 16.1 0.00 0.00 0.00 79 1012.4
20260905110003 21 5 1.6 9.7 0.00 0.00 0.00 78 1012.2
20260905104502 21 58 4.8 12.9 0.00 0.00 0.00 77 1012.0
20260905103003 21 53 8.0 16.1 0.00 0.00 0.00 77 1012.0
20260905101601 21 99 3.2 12.9 0.00 0.00 0.00 77 1012.0
20260905100100 21 16 6.4 12.9 0.00 0.00 0.00 77 1012.0
20260905094559 21 44 4.8 14.5 0.00 0.00 0.00 77 1011.9